Location: Dötzum
(52.0808°N, 9.8063°E)
Time: 06:32:18
(UTC+00:00)

Cosmos 2219 Rocket - Pass Details

Date: 27 May 2022
Orbit: 827 x 847 km, 71.0° (Epoch: 26 June)

Event Time Altitude Azimuth Distance (km) Brightness Sun altitude
Exits shadow 00:26:41 10° 245° (WSW) 2,464 4.2 -15.1°
Reaches altitude 10° 00:26:47 10° 245° (WSW) 2,432 4.2 -15.1°
Maximum altitude 00:31:57 38° 313° (NW) 1,251 3.3 -14.9°
Drops below altitude 10° 00:37:10 10° 22° (NNE) 2,450 6.0 -14.6°
Sets 00:39:48 0° 30° (NNE) 3,390 7.1 -14.5°
